Tracking 17855 objects as of 25-September-2016
HD Live streaming from Space Station
objects crossing your sky now

NAVSTAR 33 (USA 92)

Track NAVSTAR 33 (USA 92) now!
NAVSTAR 33 (USA 92) is classified as:


NORAD ID: 22700
Int'l Code: 1993-042A
Perigee: 21,194.6 km
Apogee: 21,245.4 km
Inclination: 55.8 °
Period: 760.2 minutes
Semi major axis: 27591 km
RCS: 3.4011 m2 (large)
Launch date: June 26, 1993
Source: United States (US)
Launch site: AIR FORCE EASTERN TEST RANGE (AFETR)
PRN:
Your satellite tracking list
Your tracking list is empty





NASA's NSSDC Master Catalog

Two Line Element Set (TLE):
1 22700U 93042A   16268.29676664 -.00000005  00000-0  00000+0 0  9993
2 22700  55.7638 293.3181 0009207 304.8196 217.7197  1.89431236169853
Source of the keplerian elements: AFSPC

N2YO: 439